Location: Unspecified
(0.0000°N, 0.0000°E)
Time: 00:12:47
(UTC+00:00)

ISS - Visible Passes

Search period start: 28 November 2014 00:00
Search period end: 08 December 2014 00:00
Orbit: 407 x 417 km, 51.6° (Epoch: 27 November)

Date Brightness Start Highest point End Pass type
(mag) Time Alt. Az. Time Alt. Az. Time Alt. Az.
28 Nov -1.0 19:40:55 10° SW 19:42:18 23° SW 19:42:18 23° SW visible
29 Nov -2.4 18:51:23 10° SSW 18:54:25 33° SE 18:55:03 30° E visible
30 Nov -0.7 19:38:43 10° W 19:40:39 17° WNW 19:40:39 17° WNW visible
01 Dec -2.3 18:47:57 10° SW 18:51:06 42° NW 18:53:24 16° NNE visible
04 Dec -0.6 04:44:07 10° NNE 04:46:12 16° NE 04:48:17 10° E visible
06 Dec -3.3 04:41:12 31° NNW 04:42:36 75° NE 04:45:54 10° SE visible
07 Dec -0.8 03:53:44 21° E 03:53:44 21° E 03:55:24 10° ESE visible
